sat.trackr.live / text

‹ back to catalog

STARLINK-32702

NORAD 62432 · 2024-251A

PAYLOAD ACTIVE UNKNOWN

§ Identity

Operator
Country
US
Launch date
2024-12-29
Launch site
AFWTR
Launch vehicle
Mass (kg)
RCS (m²)

Purposes: comms

External: N2YO · Heavens-Above · Gunter

§ Orbital elements

Epoch: 2026-09-21T21:28:51.258144Z

Period
93.85 min
Inclination
53.1575°
Eccentricity
0.0001211
Mean motion
15.34395813 rev/d
Perigee alt
461.9 km
Apogee alt
463.5 km
Semi-major
6,840.9 km
B*
2.7560e-4
RAAN
139.3185°
Arg perigee
90.3255°
Mean anomaly
269.7886°
Rev number
9,805

§ Raw data

STARLINK-327021 62432U 24251A   26264.89503771  .00008945  00000+0  27560-3 0  99992 62432  53.1575 139.3185 0001211  90.3255 269.7886 15.34395813 98054

JSON: /api/v1/satellites/62432 · /tle

For live sub-satellite position, see the globe view (requires WebGL).

§ Visibility from observer

Set your observer location to see the next 7 days of passes ≥ 10°. The values pass through the URL so the page stays shareable.

No JS? Fill the form by hand. The geolocation button needs JavaScript.